Погода в Бирите

Россия / Иркутская область     54°04′16″N   102°54′15″E
темп.,
°C
ветер,
м/с
пор.,
м/с
влажн.,
%
обл.,
%
осадки,
мм/ч
давл.,
гПа
погр.,
м
6 августа, пт
пт623:00+19зсз225565 0.1 100318
02:00+18зсз226393 0.1 100329
05:00+15ссз1173100 0.0 100212
08:00+18с236287 0.0 1002182
11:00+23с124447 0.0 10011088
14:00+26с133472 0.0 9992432
17:00+27сз343096 0.0 9982503
20:00+21с510465 0.0 1000585
7 августа, сб
сб723:00+15ссз22714 0.0 100123
02:00+14ссз347521 0.0 100166
05:00+13ссз34835 0.0 100255
08:00+17ссз46695 0.0 1003362
11:00+21ссз455414 0.0 10031289
14:00+21ссз675665 1.5 10041351
17:00+21ссз694980 0.1 10051579
20:00+18с7106449 0.2 1007904
8 августа, вс
вс823:00+14ссз49826 0.0 1009196
02:00+13сз348626 0.0 101058
05:00+13зсз248699 0.0 101078
08:00+17сз24675 0.0 1011267
11:00+22ссз36394 0.0 10101882
14:00+25ссз56265 0.0 10092604
17:00+26ссз45255 0.0 10082851
20:00+21с35390 0.0 100977
9 августа, пн
пн923:00+16ссз224740 0.0 101011
02:00+14с115313 0.0 101011
05:00+12ссв11616 0.0 101010
08:00+17с125023 0.0 1011147
11:00+23ссз12355 0.0 1010859
14:00+26ссз23275 0.0 10082625
17:00+26сз33235 0.0 10072793
20:00+21ссз34380 0.0 100848
10 августа, вт
вт1023:00+15с32525 0.0 101019
02:00+13с22600 0.0 101016
05:00+11с22650 0.0 101112
08:00+16ссв12510 0.0 1011145
11:00+22в11350 0.0 1011696
14:00+26юв12260 0.0 10091834
17:00+26юв32250 0.0 10091503
20:00+20ююв22380 0.0 100913